Location: Prairie State College
(41.5244°N, 87.6382°W)
Time: 20:35:47
(UTC-06:00)

Cosmos 1140 Rocket - Visible Passes

Search period start: 22 February 2017 00:00
Search period end: 04 March 2017 00:00
Orbit: 745 x 768 km, 74.1° (Epoch: 21 February)

Date Brightness Start Highest point End Pass type
(mag) Time Alt. Az. Time Alt. Az. Time Alt. Az.
22 Feb 5.3 04:26:47 10° N 04:31:25 31° ENE 04:36:03 10° SE visible
22 Feb 3.3 19:01:27 10° SSW 19:06:33 76° ESE 19:11:43 10° NNE visible
22 Feb 6.2 20:46:05 10° W 20:48:59 15° NW 20:51:54 10° NNW visible
23 Feb 6.1 03:46:58 10° NNE 03:50:34 18° NE 03:54:09 10° E visible
23 Feb 3.5 05:27:39 10° NNW 05:32:49 61° WSW 05:37:57 10° S visible
23 Feb 3.9 18:21:23 10° S 18:26:08 40° ESE 18:30:56 10° NE visible
23 Feb 5.5 20:03:50 10° WSW 20:08:03 25° WNW 20:12:20 10° N visible
24 Feb 6.6 03:08:25 10° NE 03:09:32 11° NE 03:10:40 10° ENE visible
24 Feb 3.7 04:47:04 10° NNW 04:52:18 74° ENE 04:57:32 10° SSE visible
24 Feb 4.6 19:22:24 10° SW 19:27:18 44° WNW 19:32:15 10° N visible
25 Feb 4.7 04:06:44 10° N 04:11:40 40° ENE 04:16:35 10° SE visible
25 Feb 4.5 05:49:02 10° NW 05:53:12 25° W 05:57:23 10° SSW visible
25 Feb 3.5 18:41:32 10° SSW 18:46:40 81° WNW 18:51:52 10° NNE visible
25 Feb 6.5 20:27:39 10° WNW 20:29:21 11° NW 20:31:04 10° NNW visible
26 Feb 5.7 03:26:42 10° N 03:30:53 23° ENE 03:35:02 10° ESE visible
26 Feb 3.7 05:07:55 10° NNW 05:12:53 45° WSW 05:17:52 10° S visible
26 Feb 3.6 18:01:13 10° S 18:06:11 54° ESE 18:11:14 10° NNE visible
26 Feb 6.0 19:44:38 10° WSW 19:48:21 20° WNW 19:52:06 10° N visible
27 Feb 6.3 02:47:15 10° NNE 02:49:56 14° NE 02:52:36 10° E visible
27 Feb 3.4 04:27:11 10° NNW 04:32:27 84° WSW 04:37:41 10° SSE visible
27 Feb 5.2 19:02:52 10° SW 19:07:30 34° WNW 19:12:12 10° N visible
28 Feb 4.1 03:46:44 10° N 03:51:52 53° ENE 03:56:59 10° SE visible
28 Feb 4.8 05:29:41 10° NW 05:33:11 18° W 05:36:43 10° SW visible
28 Feb 4.1 18:21:45 10° SSW 18:26:49 61° WNW 18:31:58 10° NNE visible
01 Mar 5.2 03:11:49 29° ENE 03:11:49 29° ENE 03:15:44 10° ESE visible
01 Mar 4.0 04:52:06 32° W 04:52:56 34° W 04:57:37 10° SSW visible
01 Mar 6.3 19:25:40 10° W 19:28:41 15° NW 19:31:43 10° NNW visible
02 Mar6.702:35:18ESE02:35:18ESE02:24:05Nvisible
02 Mar 4.8 04:15:31 25° S 04:15:31 25° S 04:17:43 10° S visible
02 Mar 5.7 18:43:29 10° WSW 18:47:46 26° WNW 18:52:06 10° N visible
